TimeCST,TemperatureF,Dew PointF,Humidity,Sea Level PressureIn,VisibilityMPH,Wind Direction,Wind SpeedMPH,Gust SpeedMPH,PrecipitationIn,Events,Conditions,WindDirDegrees,DateUTC
12:58 AM,19.4,14.0,80,30.25,10.0,Calm,Calm,-,N/A,,Clear,0,2012-12-30 06:58:00
2:43 AM,19.4,14.0,80,30.21,10.0,ESE,4.6,-,N/A,,Clear,120,2012-12-30 08:43:00
5:43 AM,19.4,14.0,80,30.19,10.0,SSE,5.8,-,N/A,,Clear,160,2012-12-30 11:43:00
7:06 AM,24.8,15.8,69,30.17,10.0,South,9.2,-,N/A,,Clear,170,2012-12-30 13:06:00
7:16 AM,24.8,15.8,69,30.16,10.0,SSE,10.4,-,N/A,,Clear,160,2012-12-30 13:16:00
7:35 AM,23.5,14.9,70,30.16,10.0,SE,5.8,-,N/A,,Clear,140,2012-12-30 13:35:00
7:55 AM,24.4,16.3,71,30.15,10.0,SSE,10.4,-,N/A,,Clear,160,2012-12-30 13:55:00
8:15 AM,26.6,17.4,68,30.14,10.0,South,13.8,-,N/A,,Clear,180,2012-12-30 14:15:00
8:35 AM,28.2,18.3,66,30.13,10.0,South,12.7,-,N/A,,Clear,180,2012-12-30 14:35:00
8:55 AM,30.7,18.7,61,30.13,10.0,South,18.4,24.2,N/A,,Clear,190,2012-12-30 14:55:00
9:15 AM,32.0,18.5,58,30.12,10.0,South,17.3,23.0,N/A,,Clear,180,2012-12-30 15:15:00
9:35 AM,32.9,19.2,57,30.12,10.0,South,15.0,21.9,N/A,,Clear,180,2012-12-30 15:35:00
9:55 AM,34.7,20.3,56,30.12,10.0,South,17.3,23.0,N/A,,Clear,190,2012-12-30 15:55:00
10:15 AM,36.9,19.6,50,30.11,10.0,South,19.6,26.5,N/A,,Clear,190,2012-12-30 16:15:00
10:35 AM,38.1,19.6,47,30.10,10.0,South,19.6,25.3,N/A,,Clear,190,2012-12-30 16:35:00
10:55 AM,39.9,19.4,44,30.10,10.0,South,17.3,28.8,N/A,,Clear,190,2012-12-30 16:55:00
11:15 AM,41.0,18.9,41,30.07,10.0,South,19.6,25.3,N/A,,Clear,190,2012-12-30 17:15:00
11:35 AM,42.6,17.8,37,30.05,10.0,South,24.2,32.2,N/A,,Clear,190,2012-12-30 17:35:00
11:55 AM,43.7,17.1,34,30.04,10.0,South,23.0,29.9,N/A,,Clear,190,2012-12-30 17:55:00
12:15 PM,44.6,17.4,34,30.03,10.0,SSW,27.6,34.5,N/A,,Clear,200,2012-12-30 18:15:00
12:35 PM,45.3,17.6,33,30.01,10.0,SSW,21.9,36.8,N/A,,Clear,200,2012-12-30 18:35:00
12:55 PM,46.2,17.6,32,29.99,10.0,SSW,26.5,36.8,N/A,,Clear,210,2012-12-30 18:55:00
1:15 PM,46.4,16.7,31,29.98,10.0,SSW,27.6,38.0,N/A,,Clear,210,2012-12-30 19:15:00
1:35 PM,47.5,16.3,29,29.98,10.0,SSW,23.0,34.5,N/A,,Clear,210,2012-12-30 19:35:00
1:55 PM,47.7,16.0,28,29.98,10.0,SSW,26.5,32.2,N/A,,Clear,210,2012-12-30 19:55:00
2:15 PM,47.8,16.5,29,29.98,10.0,SW,23.0,32.2,N/A,,Clear,220,2012-12-30 20:15:00
2:35 PM,48.4,15.3,27,29.98,10.0,SW,24.2,33.4,N/A,,Clear,230,2012-12-30 20:35:00
2:55 PM,48.2,15.4,27,29.98,10.0,SW,25.3,34.5,N/A,,Clear,230,2012-12-30 20:55:00
3:15 PM,47.3,16.0,29,29.97,10.0,SW,24.2,33.4,N/A,,Clear,230,2012-12-30 21:15:00
3:35 PM,48.2,17.1,29,29.98,10.0,SW,18.4,-,N/A,,Clear,220,2012-12-30 21:35:00
3:55 PM,46.4,17.6,32,29.99,10.0,SW,18.4,25.3,N/A,,Clear,220,2012-12-30 21:55:00
4:15 PM,44.6,18.7,36,30.00,10.0,SSW,13.8,-,N/A,,Clear,210,2012-12-30 22:15:00
4:35 PM,43.5,19.0,38,30.00,10.0,SW,12.7,-,N/A,,Clear,220,2012-12-30 22:35:00
4:55 PM,42.4,19.4,40,30.00,10.0,SW,11.5,-,N/A,,Clear,220,2012-12-30 22:55:00
5:15 PM,43.0,18.3,37,30.01,10.0,SW,12.7,-,N/A,,Clear,220,2012-12-30 23:15:00
5:35 PM,40.1,20.1,45,30.01,10.0,WSW,10.4,-,N/A,,Clear,250,2012-12-30 23:35:00
5:55 PM,37.9,20.8,50,30.03,10.0,WSW,5.8,-,N/A,,Clear,250,2012-12-30 23:55:00
6:15 PM,38.5,22.8,53,30.04,10.0,West,11.5,-,N/A,,Clear,270,2012-12-31 00:15:00
6:35 PM,37.0,24.8,61,30.05,10.0,WNW,11.5,-,N/A,,Clear,290,2012-12-31 00:35:00
6:55 PM,35.6,24.8,65,30.05,10.0,West,11.5,17.3,N/A,,Clear,280,2012-12-31 00:55:00
7:15 PM,34.7,23.9,65,30.05,10.0,West,8.1,-,N/A,,Clear,280,2012-12-31 01:15:00
7:35 PM,33.8,23.9,67,30.06,10.0,West,6.9,-,N/A,,Clear,260,2012-12-31 01:35:00
7:55 PM,33.1,23.7,68,30.07,10.0,West,5.8,-,N/A,,Clear,260,2012-12-31 01:55:00
8:15 PM,33.1,23.5,68,30.07,10.0,WSW,4.6,-,N/A,,Clear,250,2012-12-31 02:15:00
8:35 PM,32.2,23.5,70,30.06,10.0,West,4.6,-,N/A,,Clear,260,2012-12-31 02:35:00
8:55 PM,32.5,23.4,69,30.06,10.0,WNW,6.9,-,N/A,,Clear,300,2012-12-31 02:55:00
9:15 PM,32.2,23.4,70,30.08,10.0,WSW,6.9,-,N/A,,Clear,240,2012-12-31 03:15:00
9:35 PM,32.0,23.0,69,30.08,10.0,West,6.9,-,N/A,,Clear,270,2012-12-31 03:35:00
9:55 PM,32.0,22.6,68,30.09,10.0,West,5.8,-,N/A,,Clear,270,2012-12-31 03:55:00
10:15 PM,32.0,22.6,68,30.09,10.0,West,6.9,-,N/A,,Clear,280,2012-12-31 04:15:00
10:35 PM,31.1,22.8,71,30.08,10.0,WNW,8.1,-,N/A,,Clear,300,2012-12-31 04:35:00
10:55 PM,31.5,21.7,67,30.09,10.0,NW,8.1,-,N/A,,Clear,320,2012-12-31 04:55:00
11:15 PM,31.1,20.3,64,30.09,10.0,NNW,8.1,-,N/A,,Clear,330,2012-12-31 05:15:00
11:35 PM,30.9,19.8,63,30.09,10.0,NNW,8.1,-,N/A,,Clear,340,2012-12-31 05:35:00
11:55 PM,30.7,19.6,63,30.09,10.0,North,5.8,-,N/A,,Scattered Clouds,350,2012-12-31 05:55:00